Time,TemperatureF,DewpointF,PressureIn,WindDirection,WindDirectionDegrees,WindSpeedMPH,WindSpeedGustMPH,Humidity,HourlyPrecipIn,Conditions,Clouds,dailyrainin,SoftwareType,DateUTC
2013-01-15 00:00:00,61.8,61.8,29.98,WSW,253,0.0,3.0,100,0.00,,---,0.00,VWS V14.01,2013-01-15 05:00:00,
2013-01-15 00:10:00,62.0,62.0,29.98,NNW,330,0.0,5.0,100,0.00,,---,0.00,VWS V14.01,2013-01-15 05:10:00,
2013-01-15 00:20:00,61.8,61.8,29.99,NNW,337,4.0,7.0,100,0.00,,---,0.00,VWS V14.01,2013-01-15 05:20:00,
2013-01-15 00:30:00,58.9,58.9,29.99,NNW,344,0.0,7.0,100,0.00,,---,0.00,VWS V14.01,2013-01-15 05:30:00,
2013-01-15 00:40:00,56.9,56.9,29.99,NW,315,1.0,7.0,100,0.00,,---,0.00,VWS V14.01,2013-01-15 05:40:00,
2013-01-15 00:50:00,55.7,55.7,30.01,NW,305,2.0,8.0,100,0.00,,---,0.00,VWS V14.01,2013-01-15 05:50:00,
2013-01-15 01:00:00,54.8,54.8,30.02,NW,319,1.0,8.0,100,0.00,,---,0.00,VWS V14.01,2013-01-15 06:00:00,
2013-01-15 01:10:00,53.9,53.9,30.02,NNW,335,3.0,6.0,100,0.00,,---,0.00,VWS V14.01,2013-01-15 06:10:00,
2013-01-15 01:20:00,53.5,53.5,30.01,NW,313,0.0,6.0,100,0.00,,---,0.00,VWS V14.01,2013-01-15 06:20:00,
2013-01-15 01:30:00,53.2,53.2,30.02,NNW,333,2.0,6.0,100,0.00,,---,0.00,VWS V14.01,2013-01-15 06:30:00,
2013-01-15 01:40:00,52.6,52.6,30.02,NNW,328,2.0,7.0,100,0.00,,---,0.00,VWS V14.01,2013-01-15 06:40:00,
2013-01-15 01:50:00,51.9,51.9,30.04,NW,305,5.0,11.0,100,0.00,,---,0.00,VWS V14.01,2013-01-15 06:50:00,
2013-01-15 02:00:00,51.0,51.0,30.04,NNW,342,5.0,7.0,100,0.00,,---,0.00,VWS V14.01,2013-01-15 07:00:00,
2013-01-15 02:10:00,50.4,50.4,30.04,WNW,285,3.0,8.0,100,0.00,,---,0.00,VWS V14.01,2013-01-15 07:10:00,
2013-01-15 02:20:00,49.9,49.9,30.04,WNW,295,6.0,8.0,100,0.00,,---,0.00,VWS V14.01,2013-01-15 07:20:00,
2013-01-15 02:30:00,49.6,49.6,30.04,NNW,336,0.0,6.0,100,0.00,,---,0.00,VWS V14.01,2013-01-15 07:30:00,
2013-01-15 02:40:00,49.2,49.2,30.04,NNW,333,5.0,7.0,100,0.00,,---,0.00,VWS V14.01,2013-01-15 07:40:00,
2013-01-15 02:50:00,48.6,48.6,30.05,NW,305,0.0,5.0,100,0.00,,---,0.00,VWS V14.01,2013-01-15 07:50:00,
2013-01-15 03:00:00,48.2,48.2,30.05,NNW,333,0.0,6.0,100,0.00,,---,0.00,VWS V14.01,2013-01-15 08:00:00,
2013-01-15 03:10:00,47.9,47.9,30.05,WNW,296,3.0,7.0,100,0.00,,---,0.00,VWS V14.01,2013-01-15 08:10:00,
2013-01-15 03:20:00,47.3,47.3,30.05,NW,311,0.0,7.0,100,0.00,,---,0.00,VWS V14.01,2013-01-15 08:20:00,
2013-01-15 03:30:00,47.1,47.1,30.04,NW,323,3.0,6.0,100,0.00,,---,0.00,VWS V14.01,2013-01-15 08:30:00,
2013-01-15 03:40:00,47.0,47.0,30.04,NW,319,0.0,3.0,100,0.00,,---,0.00,VWS V14.01,2013-01-15 08:40:00,
2013-01-15 03:50:00,46.8,46.8,30.04,WNW,292,0.0,5.0,100,0.00,,---,0.00,VWS V14.01,2013-01-15 08:50:00,
2013-01-15 04:00:00,46.8,46.8,30.03,North,0,1.0,5.0,100,0.00,,---,0.00,VWS V14.01,2013-01-15 09:00:00,
2013-01-15 04:10:00,46.5,46.5,30.03,North,349,2.0,5.0,100,0.00,,---,0.00,VWS V14.01,2013-01-15 09:10:00,
2013-01-15 04:20:00,46.2,46.2,30.04,NW,312,0.0,5.0,100,0.00,,---,0.00,VWS V14.01,2013-01-15 09:20:00,
2013-01-15 04:30:00,46.2,46.2,30.04,North,359,0.0,6.0,100,0.00,,---,0.00,VWS V14.01,2013-01-15 09:30:00,
2013-01-15 04:40:00,46.1,46.1,30.04,North,357,0.0,3.0,100,0.00,,---,0.00,VWS V14.01,2013-01-15 09:40:00,
2013-01-15 04:50:00,46.1,46.1,30.03,North,357,0.0,0.0,100,0.00,,---,0.00,VWS V14.01,2013-01-15 09:50:00,
2013-01-15 05:00:00,46.1,46.1,30.02,NNW,342,3.0,3.0,100,0.00,,---,0.00,VWS V14.01,2013-01-15 10:00:00,
2013-01-15 05:10:00,46.0,46.0,30.02,NNE,18,0.0,5.0,100,0.00,,---,0.00,VWS V14.01,2013-01-15 10:10:00,
2013-01-15 05:20:00,46.0,46.0,30.02,ESE,121,0.0,3.0,100,0.00,,---,0.00,VWS V14.01,2013-01-15 10:20:00,
2013-01-15 05:30:00,46.0,46.0,30.02,East,95,0.0,0.0,100,0.00,,---,0.00,VWS V14.01,2013-01-15 10:30:00,
2013-01-15 05:40:00,46.0,46.0,30.02,NE,40,0.0,2.0,100,0.00,,---,0.00,VWS V14.01,2013-01-15 10:40:00,
2013-01-15 05:50:00,45.8,45.8,30.01,NNE,25,0.0,2.0,100,0.00,,---,0.00,VWS V14.01,2013-01-15 10:50:00,
2013-01-15 06:00:00,45.7,45.7,30.01,NNE,21,0.0,0.0,100,0.00,,---,0.00,VWS V14.01,2013-01-15 11:00:00,
2013-01-15 06:10:00,45.5,45.5,30.01,North,11,0.0,0.0,100,0.00,,---,0.00,VWS V14.01,2013-01-15 11:10:00,
2013-01-15 06:20:00,45.2,45.2,30.01,North,0,0.0,0.0,100,0.00,,---,0.00,VWS V14.01,2013-01-15 11:20:00,
2013-01-15 06:30:00,45.2,45.2,30.01,North,0,0.0,0.0,100,0.00,,---,0.00,VWS V14.01,2013-01-15 11:30:00,
2013-01-15 06:40:00,45.1,45.1,30.01,North,0,0.0,0.0,100,0.00,,---,0.00,VWS V14.01,2013-01-15 11:40:00,
2013-01-15 06:50:00,45.1,45.1,30.01,North,0,0.0,0.0,100,0.00,,---,0.00,VWS V14.01,2013-01-15 11:50:00,
2013-01-15 07:00:00,45.1,45.1,30.01,North,0,0.0,0.0,100,0.00,,---,0.00,VWS V14.01,2013-01-15 12:00:00,
2013-01-15 07:10:00,45.2,45.2,30.01,North,0,0.0,0.0,100,0.00,,---,0.00,VWS V14.01,2013-01-15 12:10:00,
2013-01-15 07:20:00,45.2,45.2,30.03,North,0,0.0,0.0,100,0.00,,---,0.00,VWS V14.01,2013-01-15 12:20:00,
2013-01-15 07:30:00,45.2,45.2,30.03,North,0,0.0,0.0,100,0.00,,---,0.00,VWS V14.01,2013-01-15 12:30:00,
2013-01-15 07:40:00,45.4,45.4,30.03,North,0,0.0,0.0,100,0.00,,---,0.00,VWS V14.01,2013-01-15 12:40:00,
2013-01-15 07:50:00,45.4,45.4,30.03,North,0,0.0,0.0,100,0.00,,---,0.00,VWS V14.01,2013-01-15 12:50:00,
2013-01-15 08:00:00,45.2,45.2,30.04,North,0,0.0,0.0,100,0.00,,---,0.00,VWS V14.01,2013-01-15 13:00:00,
2013-01-15 08:10:00,45.1,45.1,30.04,North,0,0.0,0.0,100,0.00,,---,0.00,VWS V14.01,2013-01-15 13:10:00,
2013-01-15 08:20:00,44.9,44.9,30.05,North,0,0.0,0.0,100,0.00,,---,0.00,VWS V14.01,2013-01-15 13:20:00,
2013-01-15 08:30:00,44.6,44.6,30.06,North,0,0.0,0.0,100,0.00,,---,0.00,VWS V14.01,2013-01-15 13:30:00,
2013-01-15 08:40:00,44.6,44.6,30.06,North,0,0.0,0.0,100,0.00,,---,0.00,VWS V14.01,2013-01-15 13:40:00,
2013-01-15 08:50:00,44.6,44.6,30.07,North,0,0.0,0.0,100,0.00,,---,0.00,VWS V14.01,2013-01-15 13:50:00,
2013-01-15 09:00:00,44.5,44.5,30.08,North,0,0.0,0.0,100,0.00,,---,0.00,VWS V14.01,2013-01-15 14:00:00,
2013-01-15 09:10:00,44.5,44.5,30.08,North,0,0.0,0.0,100,0.00,,---,0.00,VWS V14.01,2013-01-15 14:10:00,
2013-01-15 09:20:00,44.6,44.6,30.08,North,0,0.0,0.0,100,0.00,,---,0.00,VWS V14.01,2013-01-15 14:20:00,
2013-01-15 09:30:00,44.6,44.6,30.08,North,0,0.0,0.0,100,0.00,,---,0.00,VWS V14.01,2013-01-15 14:30:00,
2013-01-15 09:40:00,44.6,44.6,30.08,North,0,0.0,0.0,100,0.00,,---,0.00,VWS V14.01,2013-01-15 14:40:00,
2013-01-15 09:50:00,44.5,44.5,30.09,North,0,0.0,0.0,100,0.00,,---,0.00,VWS V14.01,2013-01-15 14:50:00,
2013-01-15 10:00:00,44.3,44.3,30.09,WNW,292,1.0,5.0,100,0.00,,---,0.00,VWS V14.01,2013-01-15 15:00:00,
2013-01-15 10:10:00,44.3,44.3,30.09,WNW,292,0.0,3.0,100,0.00,,---,0.00,VWS V14.01,2013-01-15 15:10:00,
2013-01-15 10:20:00,44.2,44.2,30.09,NW,315,1.0,5.0,100,0.00,,---,0.00,VWS V14.01,2013-01-15 15:20:00,
2013-01-15 10:30:00,44.2,44.2,30.09,WNW,292,1.0,4.0,100,0.00,,---,0.00,VWS V14.01,2013-01-15 15:30:00,
2013-01-15 10:40:00,44.3,44.3,30.09,WNW,292,0.0,3.0,100,0.00,,---,0.00,VWS V14.01,2013-01-15 15:40:00,
2013-01-15 10:50:00,44.2,44.2,30.08,NNW,338,1.0,6.0,100,0.00,,---,0.00,VWS V14.01,2013-01-15 15:50:00,
2013-01-15 11:00:00,44.2,44.2,30.08,NNW,338,1.0,6.0,100,0.00,,---,0.00,VWS V14.01,2013-01-15 16:00:00,
2013-01-15 11:10:00,44.2,44.2,30.08,NNW,338,2.0,6.0,100,0.00,,---,0.00,VWS V14.01,2013-01-15 16:10:00,
2013-01-15 11:20:00,44.3,44.3,30.08,WNW,292,0.0,4.0,100,0.00,,---,0.00,VWS V14.01,2013-01-15 16:20:00,
2013-01-15 11:30:00,44.8,44.8,30.08,WNW,292,0.0,3.0,100,0.00,,---,0.00,VWS V14.01,2013-01-15 16:30:00,
2013-01-15 11:40:00,44.8,44.8,30.08,WNW,292,0.0,0.0,100,0.00,,---,0.00,VWS V14.01,2013-01-15 16:40:00,
2013-01-15 11:50:00,44.9,44.9,30.07,NW,315,0.0,3.0,100,0.00,,---,0.00,VWS V14.01,2013-01-15 16:50:00,
2013-01-15 12:00:00,45.1,45.1,30.06,NW,315,0.0,3.0,100,0.00,,---,0.00,VWS V14.01,2013-01-15 17:00:00,
2013-01-15 12:10:00,45.1,45.1,30.06,NNW,338,0.0,6.0,100,0.00,,---,0.00,VWS V14.01,2013-01-15 17:10:00,
2013-01-15 12:20:00,45.2,45.2,30.06,NNW,338,0.0,3.0,100,0.00,,---,0.00,VWS V14.01,2013-01-15 17:20:00,
2013-01-15 12:30:00,45.5,45.5,30.06,NNW,338,1.0,5.0,100,0.00,,---,0.00,VWS V14.01,2013-01-15 17:30:00,
2013-01-15 12:40:00,45.8,45.8,30.06,North,0,0.0,2.0,100,0.00,,---,0.00,VWS V14.01,2013-01-15 17:40:00,
2013-01-15 12:50:00,45.7,45.7,30.05,North,0,0.0,3.0,100,0.00,,---,0.00,VWS V14.01,2013-01-15 17:50:00,
2013-01-15 13:00:00,46.0,46.0,30.04,North,0,0.0,3.0,100,0.00,,---,0.00,VWS V14.01,2013-01-15 18:00:00,
2013-01-15 13:10:00,46.1,46.1,30.04,North,0,0.0,3.0,100,0.00,,---,0.00,VWS V14.01,2013-01-15 18:10:00,
2013-01-15 13:20:00,46.2,46.2,30.04,NE,45,0.0,3.0,100,0.00,,---,0.00,VWS V14.01,2013-01-15 18:20:00,
2013-01-15 13:30:00,46.2,46.2,30.03,NNE,22,0.0,3.0,100,0.00,,---,0.00,VWS V14.01,2013-01-15 18:30:00,
2013-01-15 13:40:00,46.2,46.2,30.03,NE,45,0.0,3.0,100,0.00,,---,0.00,VWS V14.01,2013-01-15 18:40:00,
2013-01-15 13:50:00,46.4,46.4,30.02,NE,45,0.0,2.0,100,0.00,,---,0.00,VWS V14.01,2013-01-15 18:50:00,
2013-01-15 14:00:00,46.4,46.4,30.02,NNW,338,0.0,6.0,100,0.00,,---,0.00,VWS V14.01,2013-01-15 19:00:00,
2013-01-15 14:10:00,46.4,46.4,30.02,NNW,338,0.0,3.0,100,0.00,,---,0.00,VWS V14.01,2013-01-15 19:10:00,
2013-01-15 14:20:00,46.5,46.5,30.03,NNW,338,0.0,0.0,100,0.00,,---,0.00,VWS V14.01,2013-01-15 19:20:00,
2013-01-15 14:30:00,46.4,46.4,30.02,North,0,0.0,5.0,100,0.00,,---,0.00,VWS V14.01,2013-01-15 19:30:00,
2013-01-15 14:40:00,46.2,46.2,30.02,West,270,0.0,3.0,100,0.00,,---,0.00,VWS V14.01,2013-01-15 19:40:00,
2013-01-15 14:50:00,46.2,46.2,30.03,NNW,338,0.0,2.0,100,0.00,,---,0.00,VWS V14.01,2013-01-15 19:50:00,
2013-01-15 15:00:00,45.8,45.8,30.02,NNW,338,0.0,3.0,100,0.00,,---,0.00,VWS V14.01,2013-01-15 20:00:00,
2013-01-15 15:10:00,45.7,45.7,30.02,NNW,338,0.0,2.0,100,0.00,,---,0.00,VWS V14.01,2013-01-15 20:10:00,
2013-01-15 15:20:00,45.5,45.5,30.02,NNW,338,0.0,0.0,100,0.00,,---,0.00,VWS V14.01,2013-01-15 20:20:00,
2013-01-15 15:30:00,45.4,45.4,30.02,NNW,338,0.0,0.0,100,0.00,,---,0.00,VWS V14.01,2013-01-15 20:30:00,
2013-01-15 15:40:00,45.2,45.2,30.02,NW,315,0.0,2.0,100,0.00,,---,0.00,VWS V14.01,2013-01-15 20:40:00,
2013-01-15 15:50:00,45.4,45.4,30.02,NW,315,0.0,0.0,100,0.00,,---,0.00,VWS V14.01,2013-01-15 20:50:00,
2013-01-15 16:00:00,45.5,45.5,30.03,NNE,22,0.0,1.0,100,0.00,,---,0.00,VWS V14.01,2013-01-15 21:00:00,
2013-01-15 16:10:00,45.4,45.4,30.03,NNE,22,0.0,3.0,100,0.00,,---,0.00,VWS V14.01,2013-01-15 21:10:00,
2013-01-15 16:20:00,45.4,45.4,30.03,NNE,22,0.0,3.0,100,0.00,,---,0.00,VWS V14.01,2013-01-15 21:20:00,
2013-01-15 16:30:00,45.4,45.4,30.03,NNE,22,0.0,2.0,100,0.00,,---,0.00,VWS V14.01,2013-01-15 21:30:00,
2013-01-15 16:50:00,45.4,45.4,30.03,NNE,17,0.0,0.0,100,0.00,,---,0.00,VWS V14.01,2013-01-15 21:50:00,
2013-01-15 17:00:00,45.4,45.4,30.03,North,0,0.0,0.0,100,0.00,,---,0.00,VWS V14.01,2013-01-15 22:00:00,
2013-01-15 17:10:00,45.4,45.4,30.03,North,0,0.0,0.0,100,0.00,,---,0.00,VWS V14.01,2013-01-15 22:10:00,
2013-01-15 17:20:00,45.4,45.4,30.03,North,0,0.0,0.0,100,0.00,,---,0.00,VWS V14.01,2013-01-15 22:20:00,
2013-01-15 17:30:00,45.2,45.2,30.03,North,0,0.0,0.0,100,0.00,,---,0.00,VWS V14.01,2013-01-15 22:30:00,
2013-01-15 17:40:00,45.2,45.2,30.03,North,0,0.0,2.0,100,0.00,,---,0.00,VWS V14.01,2013-01-15 22:40:00,
2013-01-15 17:50:00,45.2,45.2,30.03,North,0,0.0,0.0,100,0.00,,---,0.00,VWS V14.01,2013-01-15 22:50:00,
2013-01-15 18:00:00,45.2,45.2,30.02,North,357,0.0,0.0,100,0.00,,---,0.00,VWS V14.01,2013-01-15 23:00:00,
2013-01-15 18:10:00,44.9,44.9,30.02,North,0,0.0,3.0,100,0.00,,---,0.00,VWS V14.01,2013-01-15 23:10:00,
2013-01-15 18:20:00,44.9,44.9,30.02,North,0,0.0,5.0,100,0.00,,---,0.00,VWS V14.01,2013-01-15 23:20:00,
2013-01-15 18:30:00,44.8,44.8,30.02,NE,41,0.0,6.0,100,0.00,,---,0.00,VWS V14.01,2013-01-15 23:30:00,
2013-01-15 18:40:00,44.6,44.6,30.02,NE,34,0.0,3.0,100,0.00,,---,0.00,VWS V14.01,2013-01-15 23:40:00,
2013-01-15 18:50:00,44.6,44.6,30.03,NE,34,0.0,0.0,100,0.00,,---,0.00,VWS V14.01,2013-01-15 23:50:00,
2013-01-15 19:00:00,44.6,44.6,30.03,NE,34,0.0,0.0,100,0.00,,---,0.00,VWS V14.01,2013-01-16 00:00:00,
2013-01-15 19:10:00,44.6,44.6,30.03,NE,34,0.0,0.0,100,0.00,,---,0.00,VWS V14.01,2013-01-16 00:10:00,
2013-01-15 19:20:00,44.5,44.5,30.03,NE,34,0.0,0.0,100,0.00,,---,0.00,VWS V14.01,2013-01-16 00:20:00,
2013-01-15 19:30:00,44.3,44.3,30.02,North,0,0.0,3.0,100,0.00,,---,0.00,VWS V14.01,2013-01-16 00:30:00,
2013-01-15 19:40:00,44.3,44.3,30.02,North,0,0.0,0.0,100,0.00,,---,0.00,VWS V14.01,2013-01-16 00:40:00,
2013-01-15 19:50:00,44.3,44.3,30.01,North,0,0.0,0.0,100,0.00,,---,0.00,VWS V14.01,2013-01-16 00:50:00,
2013-01-15 20:00:00,44.3,44.3,30.01,North,0,0.0,0.0,100,0.00,,---,0.00,VWS V14.01,2013-01-16 01:00:00,
2013-01-15 20:10:00,44.3,44.3,30.01,North,0,0.0,0.0,100,0.00,,---,0.00,VWS V14.01,2013-01-16 01:10:00,
2013-01-15 20:20:00,44.3,44.3,30.00,North,0,0.0,0.0,100,0.00,,---,0.00,VWS V14.01,2013-01-16 01:20:00,
2013-01-15 20:30:00,44.2,44.2,30.00,North,0,0.0,3.0,100,0.00,,---,0.00,VWS V14.01,2013-01-16 01:30:00,
2013-01-15 20:40:00,44.3,44.3,30.00,North,0,0.0,0.0,100,0.00,,---,0.00,VWS V14.01,2013-01-16 01:40:00,
2013-01-15 20:50:00,44.3,44.3,29.99,North,0,0.0,0.0,100,0.00,,---,0.00,VWS V14.01,2013-01-16 01:50:00,
2013-01-15 21:00:00,44.5,44.5,29.99,North,0,0.0,0.0,100,0.01,,---,0.01,VWS V14.01,2013-01-16 02:00:00,
2013-01-15 21:10:00,44.5,44.5,29.99,North,0,0.0,0.0,100,0.01,,---,0.01,VWS V14.01,2013-01-16 02:10:00,
2013-01-15 21:20:00,44.5,44.5,29.99,North,0,0.0,0.0,100,0.01,,---,0.01,VWS V14.01,2013-01-16 02:20:00,
2013-01-15 21:30:00,44.5,44.5,29.98,North,0,0.0,0.0,100,0.01,,---,0.01,VWS V14.01,2013-01-16 02:30:00,
2013-01-15 21:40:00,44.6,44.6,29.98,North,0,0.0,0.0,100,0.01,,---,0.01,VWS V14.01,2013-01-16 02:40:00,
2013-01-15 21:50:00,44.5,44.5,29.97,NE,34,0.0,3.0,100,0.01,,---,0.01,VWS V14.01,2013-01-16 02:50:00,
2013-01-15 22:00:00,44.5,44.5,29.96,NE,34,0.0,0.0,100,0.01,,---,0.01,VWS V14.01,2013-01-16 03:00:00,
2013-01-15 22:10:00,44.5,44.5,29.96,NE,34,0.0,1.0,100,0.00,,---,0.01,VWS V14.01,2013-01-16 03:10:00,
2013-01-15 22:20:00,44.6,44.6,29.96,NE,34,0.0,0.0,100,0.00,,---,0.01,VWS V14.01,2013-01-16 03:20:00,
2013-01-15 22:30:00,44.6,44.6,29.95,NE,34,0.0,0.0,100,0.00,,---,0.01,VWS V14.01,2013-01-16 03:30:00,
2013-01-15 22:40:00,44.6,44.6,29.95,NE,34,0.0,0.0,100,0.00,,---,0.01,VWS V14.01,2013-01-16 03:40:00,
2013-01-15 22:50:00,44.6,44.6,29.96,NE,34,0.0,0.0,100,0.00,,---,0.01,VWS V14.01,2013-01-16 03:50:00,
2013-01-15 23:00:00,44.8,44.8,29.95,NE,34,0.0,0.0,100,0.00,,---,0.01,VWS V14.01,2013-01-16 04:00:00,
2013-01-15 23:10:00,44.8,44.8,29.95,NE,34,0.0,0.0,100,0.00,,---,0.01,VWS V14.01,2013-01-16 04:10:00,
2013-01-15 23:20:00,44.8,44.8,29.94,NE,34,0.0,0.0,100,0.00,,---,0.01,VWS V14.01,2013-01-16 04:20:00,
2013-01-15 23:30:00,44.9,44.9,29.94,NNE,20,0.0,3.0,100,0.01,,---,0.02,VWS V14.01,2013-01-16 04:30:00,
2013-01-15 23:40:00,44.9,44.9,29.94,NNE,20,0.0,0.0,100,0.01,,---,0.02,VWS V14.01,2013-01-16 04:40:00,
2013-01-15 23:50:00,45.1,45.1,29.92,NNE,20,0.0,0.0,100,0.01,,---,0.02,VWS V14.01,2013-01-16 04:50:00,